Location: Krasnoyarskiy Pitomnik
(51.1333°N, 71.6167°E)
Time: 09:47:41
(UTC+00:00)

Envisat - Pass Details

Date: 05 March 2024
Orbit: 762 x 764 km, 98.3° (Epoch: 21 April)

Event Time Altitude Azimuth Distance (km) Brightness Sun altitude
Rises 21:11:43 0° 29° (NNE) 3,243 7.1 -39.3°
Reaches altitude 10° 21:15:15 10° 55° (NE) 2,310 6.1 -39.0°
Enters shadow 21:17:32 14° 82° (E) 2,049 5.6 -38.8°
